When you browse on this site, cookies collect data to enhance your experience and personalize the content and advertising you see.
Visit our Privacy Policy to learn more. By continuing to use the site, you agree to this use of cookies and data.

Hourly Weather La Sierra

Today, 7 August, Friday

Time Temperature Precipitation Wind Pressure Humidity
00:00 +18°C° 0 mm 1 mps 623 mmHg 80%
01:00 +18°C° 0 mm 1 mps 623 mmHg 80%
02:00 +16°C° 0 mm 1 mps 623 mmHg 81%
03:00 +16°C° 0 mm 1 mps 622 mmHg 81%
04:00 +16°C° 0 mm 1 mps 622 mmHg 81%
05:00 +18°C° 0 mm 1 mps 623 mmHg 80%
06:00 +18°C° 0 mm 1 mps 623 mmHg 79%
07:00 +18°C° 0 mm 1 mps 624 mmHg 79%
08:00 +20°C° 0 mm 1 mps 625 mmHg 72%
09:00 +22°C° 0 mm 1 mps 626 mmHg 65%
10:00 +24°C° 0 mm 1 mps 627 mmHg 59%
11:00 +24°C° 0.1 mm 1 mps 626 mmHg 59%
12:00 +24°C° 0.1 mm 1 mps 626 mmHg 59%
13:00 +24°C° 0.1 mm 2 mps 625 mmHg 59%
14:00 +24°C° 0.1 mm 2 mps 625 mmHg 58%
15:00 +24°C° 0.1 mm 2 mps 625 mmHg 57%
16:00 +24°C° 0.1 mm 2 mps 624 mmHg 56%
17:00 +23°C° 0 mm 2 mps 624 mmHg 62%
18:00 +20°C° 0 mm 2 mps 624 mmHg 68%
19:00 +18°C° 0 mm 2 mps 623 mmHg 73%
20:00 +18°C° 0 mm 2 mps 624 mmHg 75%
21:00 +19°C° 0 mm 1 mps 624 mmHg 77%
22:00 +19°C° 0 mm 1 mps 625 mmHg 78%
23:00 +19°C° 0.1 mm 1 mps 624 mmHg 79%

Tomorrow, 8 August, Saturday

Time Temperature Precipitation Wind Pressure Humidity
00:00 +18°C° 0.1 mm 1 mps 624 mmHg 81%
01:00 +18°C° 0.1 mm 1 mps 624 mmHg 82%
02:00 +18°C° 0 mm 1 mps 624 mmHg 83%
03:00 +16°C° 0 mm 1 mps 623 mmHg 83%
04:00 +16°C° 0 mm 1 mps 623 mmHg 84%
05:00 +18°C° 0.1 mm 1 mps 623 mmHg 82%
06:00 +18°C° 0.1 mm 1 mps 624 mmHg 81%
07:00 +19°C° 0.1 mm 1 mps 624 mmHg 80%
08:00 +20°C° 0 mm 1 mps 625 mmHg 73%
09:00 +22°C° 0 mm 1 mps 626 mmHg 67%
10:00 +24°C° 0 mm 1 mps 627 mmHg 60%
11:00 +25°C° 0 mm 1 mps 627 mmHg 57%
12:00 +26°C° 0 mm 2 mps 627 mmHg 54%
13:00 +27°C° 0 mm 2 mps 626 mmHg 51%
14:00 +26°C° 0 mm 2 mps 626 mmHg 51%
15:00 +26°C° 0 mm 2 mps 625 mmHg 51%
16:00 +26°C° 0 mm 2 mps 625 mmHg 51%
17:00 +24°C° 0 mm 2 mps 624 mmHg 57%
18:00 +21°C° 0 mm 2 mps 624 mmHg 64%
19:00 +19°C° 0 mm 2 mps 623 mmHg 70%
20:00 +18°C° 0 mm 2 mps 624 mmHg 72%
21:00 +18°C° 0 mm 2 mps 624 mmHg 75%
22:00 +18°C° 0 mm 1 mps 625 mmHg 77%
23:00 +18°C° 0 mm 1 mps 624 mmHg 78%

Day after tomorrow, 9 August, Sunday

Time Temperature Precipitation Wind Pressure Humidity
00:00 +18°C° 0 mm 1 mps 624 mmHg 78%
01:00 +18°C° 0 mm 1 mps 624 mmHg 79%
02:00 +18°C° 0 mm 1 mps 623 mmHg 80%
03:00 +18°C° 0 mm 1 mps 623 mmHg 80%
04:00 +16°C° 0 mm 1 mps 623 mmHg 80%
05:00 +18°C° 0 mm 1 mps 623 mmHg 79%
06:00 +18°C° 0 mm 1 mps 624 mmHg 78%
07:00 +19°C° 0 mm 1 mps 624 mmHg 78%
08:00 +21°C° 0 mm 1 mps 625 mmHg 70%
09:00 +23°C° 0 mm 1 mps 626 mmHg 62%
10:00 +25°C° 0 mm 1 mps 627 mmHg 55%
11:00 +26°C° 0 mm 1 mps 627 mmHg 52%
12:00 +27°C° 0 mm 1 mps 627 mmHg 49%
13:00 +28°C° 0 mm 1 mps 626 mmHg 46%
14:00 +27°C° 0 mm 1 mps 626 mmHg 48%
15:00 +27°C° 0 mm 1 mps 625 mmHg 50%
16:00 +26°C° 0 mm 1 mps 624 mmHg 51%
17:00 +24°C° 0 mm 2 mps 624 mmHg 60%
18:00 +21°C° 0 mm 2 mps 623 mmHg 69%
19:00 +19°C° 0 mm 2 mps 623 mmHg 78%
20:00 +19°C° 0 mm 1 mps 623 mmHg 79%
21:00 +19°C° 0 mm 1 mps 623 mmHg 80%
22:00 +18°C° 0 mm 1 mps 624 mmHg 81%
23:00 +18°C° 0 mm 1 mps 623 mmHg 81%

10 August, Monday

Time Temperature Precipitation Wind Pressure Humidity
00:00 +18°C° 0 mm 1 mps 623 mmHg 81%
01:00 +18°C° 0 mm 1 mps 623 mmHg 82%
02:00 +16°C° 0 mm 1 mps 623 mmHg 82%
03:00 +16°C° 0 mm 1 mps 622 mmHg 83%
04:00 +16°C° 0 mm 1 mps 622 mmHg 84%
05:00 +16°C° 0 mm 1 mps 622 mmHg 82%
06:00 +18°C° 0 mm 1 mps 623 mmHg 81%
07:00 +18°C° 0 mm 1 mps 623 mmHg 80%
08:00 +21°C° 0 mm 1 mps 624 mmHg 72%
09:00 +23°C° 0 mm 1 mps 625 mmHg 63%
10:00 +25°C° 0 mm 1 mps 626 mmHg 55%
11:00 +26°C° 0 mm 1 mps 626 mmHg 52%
12:00 +27°C° 0 mm 1 mps 625 mmHg 49%
13:00 +28°C° 0 mm 1 mps 625 mmHg 45%
14:00 +28°C° 0.1 mm 1 mps 624 mmHg 47%
15:00 +27°C° 0.1 mm 1 mps 624 mmHg 48%
16:00 +27°C° 0.1 mm 1 mps 623 mmHg 50%
17:00 +24°C° 0.1 mm 1 mps 623 mmHg 61%
18:00 +22°C° 0.1 mm 1 mps 622 mmHg 72%
19:00 +19°C° 0.1 mm 1 mps 622 mmHg 83%
20:00 +19°C° 0 mm 1 mps 622 mmHg 83%
21:00 +19°C° 0 mm 1 mps 622 mmHg 83%
22:00 +18°C° 0 mm 1 mps 623 mmHg 83%
23:00 +18°C° 0 mm 1 mps 622 mmHg 83%

11 August, Tuesday

Time Temperature Precipitation Wind Pressure Humidity
00:00 +16°C° 0 mm 1 mps 622 mmHg 83%
01:00 +16°C° 0 mm 1 mps 622 mmHg 83%
02:00 +16°C° 0 mm 1 mps 621 mmHg 83%
03:00 +16°C° 0 mm 1 mps 621 mmHg 83%
04:00 +15°C° 0 mm 1 mps 621 mmHg 83%
05:00 +16°C° 0 mm 1 mps 621 mmHg 82%
06:00 +16°C° 0 mm 1 mps 622 mmHg 81%
07:00 +18°C° 0 mm 1 mps 622 mmHg 79%
08:00 +20°C° 0 mm 1 mps 623 mmHg 71%
09:00 +23°C° 0 mm 1 mps 624 mmHg 63%
10:00 +25°C° 0 mm 1 mps 625 mmHg 54%
11:00 +26°C° 0 mm 1 mps 625 mmHg 51%
12:00 +27°C° 0 mm 1 mps 624 mmHg 47%
13:00 +28°C° 0 mm 2 mps 624 mmHg 43%
14:00 +28°C° 0 mm 2 mps 623 mmHg 46%
15:00 +28°C° 0 mm 2 mps 623 mmHg 48%
16:00 +27°C° 0 mm 2 mps 622 mmHg 51%
17:00 +25°C° 0.2 mm 1 mps 622 mmHg 63%
18:00 +22°C° 0.2 mm 1 mps 621 mmHg 76%
19:00 +19°C° 0.2 mm 1 mps 621 mmHg 88%
20:00 +19°C° 0 mm 1 mps 621 mmHg 88%
21:00 +19°C° 0 mm 1 mps 622 mmHg 88%
22:00 +18°C° 0 mm 1 mps 622 mmHg 89%
23:00 +18°C° 0 mm 1 mps 622 mmHg 88%

12 August, Wednesday

Time Temperature Precipitation Wind Pressure Humidity
00:00 +18°C° 0 mm 1 mps 621 mmHg 88%
01:00 +16°C° 0 mm 1 mps 621 mmHg 87%
02:00 +16°C° 0 mm 1 mps 621 mmHg 86%
03:00 +16°C° 0 mm 1 mps 621 mmHg 86%
04:00 +16°C° 0 mm 1 mps 620 mmHg 85%
05:00 +16°C° 0 mm 1 mps 621 mmHg 83%
06:00 +18°C° 0 mm 1 mps 621 mmHg 82%
07:00 +18°C° 0 mm 1 mps 622 mmHg 80%
08:00 +20°C° 0 mm 1 mps 623 mmHg 73%
09:00 +23°C° 0 mm 1 mps 624 mmHg 66%
10:00 +25°C° 0 mm 1 mps 625 mmHg 58%
11:00 +26°C° 0 mm 1 mps 625 mmHg 55%
12:00 +27°C° 0 mm 1 mps 624 mmHg 51%
13:00 +28°C° 0 mm 1 mps 624 mmHg 47%
14:00 +27°C° 0.2 mm 1 mps 623 mmHg 52%
15:00 +26°C° 0.2 mm 1 mps 623 mmHg 57%
16:00 +25°C° 0.2 mm 2 mps 622 mmHg 63%
17:00 +23°C° 0.9 mm 1 mps 622 mmHg 72%
18:00 +21°C° 0.9 mm 1 mps 621 mmHg 82%
19:00 +19°C° 0.9 mm 1 mps 621 mmHg 92%
20:00 +19°C° 0.4 mm 1 mps 621 mmHg 92%
21:00 +17°C° 0.4 mm 0 mps 622 mmHg 92%
22:00 +17°C° 0.4 mm 0 mps 622 mmHg 92%
23:00 +17°C° 0.1 mm 0 mps 622 mmHg 92%
Show more